Flag for Canada Weather past 2 weeks in Fort Simpson, Northwest Territories, Canada

Now
0 °F

Overcast.


Feels Like: -18 °F
Forecast: -14 / 1 °F
Wind: 12 mph from Northwest

Location: Fort Simpson

Current Time: Jan 26, 2015 at 2:18:54 AM

Latest Report: Jan 26, 2015 at 2:00 AM


Visibility: 15 mi

Pressure: 29.85 "Hg

Humidity: 78%

Dew point: -6 °F

Location of Fort SimpsonLocation

Historic Weather in Fort Simpson — Graph

°F

Fort Simpson temperature yesterday

Maximum temperature yesterday: 3 °F (at 2:00 PM)
Minimum temperature yesterday: -6 °F (at 7:00 PM)
Average temperature yesterday: -1 °F

Past Weeks' High & Low Weather Summary

 TemperatureHumidityPressure
High10 °F (Jan 21, 3:00 PM)85% (Jan 12, 12:00 AM)30.33 "Hg (Jan 12, 12:00 AM)
Low-24 °F (Jan 11, 2:00 AM)61% (Jan 11, 4:00 AM)29.19 "Hg (Jan 16, 8:00 AM)
Average0 °F76%29.86 "Hg
* Reported Jan 11 1:00 AM — Jan 26 1:00 AM, Fort Simpson, Weather by CustomWeather, © 2014

Note: Actual official high and low records may vary slightly from our data, if they occured in-between our weather recording intervals... More about our weather records

Advertising

Fort Simpson weather history for previous 24 hours

 ConditionsComfort  
Time TempWeatherWind HumidityBarometerVisibility
1:00 AM
Jan 26
-2 °FOvercast.5 mph77%29.83 "Hg15 mi
12:00 AM-2 °FPassing clouds.5 mph77%29.82 "Hg15 mi
11:00 PM
Jan 25
-2 °FPassing clouds.8 mph77%29.79 "Hg15 mi
10:00 PM-2 °FPassing clouds.7 mph77%29.79 "Hg15 mi
9:00 PM-4 °FOvercast.3 mph77%29.78 "Hg15 mi
8:00 PM-6 °FPassing clouds.No wind77%29.78 "Hg15 mi
7:00 PM-6 °FPassing clouds.No wind77%29.79 "Hg15 mi
6:00 PM-2 °FPassing clouds.No wind77%29.79 "Hg15 mi
5:00 PM0 °FPassing clouds.2 mph78%29.78 "Hg15 mi
4:00 PM3 °FBroken clouds.3 mph72%29.77 "Hg15 mi
3:47 PM1 °FBroken clouds.5 mph78%29.78 "Hg15 mi
3:00 PM3 °FLight snow. Partly sunny.8 mph72%29.78 "Hg15 mi
2:00 PM3 °FLight snow. Overcast.7 mph72%29.77 "Hg6 mi
1:00 PM1 °FLight snow. Mostly cloudy.7 mph78%29.76 "Hg3 mi
12:00 PM1 °FLight snow. Overcast.6 mph78%29.75 "Hg4 mi
11:00 AM1 °FLight snow. Overcast.8 mph78%29.74 "Hg10 mi
10:00 AM1 °FLight snow. Overcast.9 mph78%29.72 "Hg4 mi
9:00 AM0 °FLight snow. Overcast.8 mph78%29.71 "Hg3 mi
8:50 AM0 °FLight snow. Overcast.8 mph78%29.71 "Hg3 mi
8:00 AM0 °FFrigid.10 mph78%29.70 "Hg2 mi
7:46 AM0 °FLight snow. Overcast.12 mph78%29.70 "Hg2 mi
7:00 AM0 °FLight snow. Overcast.13 mph78%29.69 "Hg12 mi
6:00 AM0 °FLight snow. Overcast.10 mph78%29.66 "Hg4 mi
5:00 AM0 °FLight snow. Mostly cloudy.9 mph78%29.66 "Hg12 mi
4:00 AM-2 °FLight snow. Mostly cloudy.6 mph77%29.67 "Hg15 mi
3:00 AM-2 °FSnow flurries. Low clouds.3 mph77%29.69 "Hg15 mi
2:00 AM-4 °FSnow flurries. Low clouds.6 mph77%29.71 "Hg15 mi
Weather by CustomWeather, © 2014

See weather overviewHow to use our weather pages